| time (UTC) | temp C | wind direction | speed KPH | gust KPH | rain 1hr cm | rain 24hr cm | rain mn cm | humidity % | barometer mb |
| 20260503013046 | 16 | 91 | 0.0 | 0.0 | 0.00 | 0.00 | 0.00 | 40 | 1011.7 |
| 20260503011555 | 17 | 91 | 0.0 | 1.6 | 0.00 | 0.00 | 0.00 | 37 | 1011.7 |
| 20260503010052 | 17 | 91 | 0.0 | 11.3 | 0.00 | 0.00 | 0.00 | 39 | 1011.8 |
| 20260503004556 | 17 | 135 | 0.0 | 1.6 | 0.00 | 0.00 | 0.00 | 38 | 1011.9 |
| 20260503003045 | 17 | 135 | 0.0 | 1.6 | 0.00 | 0.00 | 0.00 | 38 | 1012.1 |
| 20260503001547 | 17 | 135 | 0.0 | 0.0 | 0.00 | 0.00 | 0.00 | 37 | 1012.1 |
| 20260503000043 | 17 | 135 | 0.0 | 8.0 | 0.00 | 0.00 | 0.00 | 37 | 1012.2 |
| 20260502234545 | 18 | 148 | 0.0 | 14.5 | 0.00 | 0.00 | 0.00 | 36 | 1012.3 |
| 20260502233045 | 18 | 216 | 0.0 | 4.8 | 0.00 | 0.00 | 0.00 | 36 | 1012.3 |
| 20260502231540 | 17 | 216 | 0.0 | 4.8 | 0.00 | 0.00 | 0.00 | 37 | 1012.4 |
| 20260502230039 | 17 | 216 | 0.0 | 8.0 | 0.00 | 0.00 | 0.00 | 39 | 1012.5 |
| 20260502224538 | 17 | 297 | 4.8 | 11.3 | 0.00 | 0.00 | 0.00 | 37 | 1012.8 |
| 20260502223041 | 17 | 95 | 0.0 | 6.4 | 0.00 | 0.00 | 0.00 | 38 | 1013.0 |
| 20260502221538 | 16 | 95 | 0.0 | 6.4 | 0.00 | 0.00 | 0.00 | 39 | 1013.3 |
| 20260502220038 | 16 | 61 | 3.2 | 9.7 | 0.00 | 0.00 | 0.00 | 38 | 1013.5 |
| 20260502214536 | 16 | 56 | 0.0 | 6.4 | 0.00 | 0.00 | 0.00 | 39 | 1013.6 |
| 20260502213036 | 16 | 56 | 3.2 | 11.3 | 0.00 | 0.00 | 0.00 | 37 | 1013.8 |
| 20260502211542 | 16 | 41 | 0.0 | 12.9 | 0.00 | 0.00 | 0.00 | 39 | 1014.0 |
| 20260502210039 | 16 | 360 | 3.2 | 16.1 | 0.00 | 0.00 | 0.00 | 39 | 1014.1 |
| 20260502204535 | 16 | 314 | 0.0 | 14.5 | 0.00 | 0.00 | 0.00 | 41 | 1014.1 |
| 20260502203034 | 16 | 329 | 0.0 | 8.0 | 0.00 | 0.00 | 0.00 | 39 | 1014.2 |
| 20260502201535 | 17 | 16 | 4.8 | 16.1 | 0.00 | 0.00 | 0.00 | 37 | 1014.3 |
| 20260502200030 | 16 | 360 | 0.0 | 16.1 | 0.00 | 0.00 | 0.00 | 40 | 1014.5 |
| 20260502194529 | 16 | 33 | 3.2 | 14.5 | 0.00 | 0.00 | 0.00 | 40 | 1014.7 |
| 20260502193027 | 16 | 24 | 1.6 | 12.9 | 0.00 | 0.00 | 0.00 | 45 | 1014.8 |
| 20260502191523 | 15 | 16 | 4.8 | 20.9 | 0.00 | 0.00 | 0.00 | 44 | 1015.1 |
| 20260502190028 | 15 | 23 | 4.8 | 14.5 | 0.00 | 0.00 | 0.00 | 44 | 1015.2 |
| 20260502184535 | 15 | 44 | 9.7 | 20.9 | 0.00 | 0.00 | 0.00 | 45 | 1015.3 |
| 20260502183035 | 15 | 15 | 6.4 | 19.3 | 0.00 | 0.00 | 0.00 | 46 | 1015.3 |
| 20260502181532 | 15 | 22 | 8.0 | 22.5 | 0.00 | 0.00 | 0.00 | 46 | 1015.3 |
| 20260502163020 | 15 | 341 | 4.8 | 22.5 | 0.00 | 0.00 | 0.00 | 47 | 1015.2 |
| 20260502161511 | 15 | 14 | 6.4 | 20.9 | 0.00 | 0.00 | 0.00 | 46 | 1015.2 |
| 20260502151612 | 13 | 27 | 9.7 | 19.3 | 0.00 | 0.00 | 0.00 | 46 | 1015.1 |
| 20260502123029 | 6 | 27 | 0.0 | 0.0 | 0.00 | 0.00 | 0.00 | 69 | 1014.7 |
| 20260502121526 | 6 | 27 | 0.0 | 1.6 | 0.00 | 0.00 | 0.00 | 68 | 1014.5 |
| 20260502114518 | 7 | 27 | 0.0 | 1.6 | 0.00 | 0.00 | 0.00 | 62 | 1014.3 |
| 20260502113017 | 7 | 27 | 0.0 | 1.6 | 0.00 | 0.00 | 0.00 | 60 | 1014.3 |
| 20260502111515 | 7 | 27 | 0.0 | 3.2 | 0.00 | 0.00 | 0.00 | 61 | 1014.3 |
| 20260502110014 | 7 | 27 | 0.0 | 6.4 | 0.00 | 0.00 | 0.00 | 60 | 1014.2 |
| 20260502104515 | 8 | 27 | 0.0 | 6.4 | 0.00 | 0.00 | 0.00 | 58 | 1013.9 |
| 20260502103013 | 8 | 27 | 0.0 | 4.8 | 0.00 | 0.00 | 0.00 | 56 | 1013.5 |
| 20260502101522 | 8 | 27 | 0.0 | 8.0 | 0.00 | 0.00 | 0.00 | 54 | 1013.3 |
| 20260502090113 | 8 | 27 | 0.0 | 9.7 | 0.00 | 0.00 | 0.00 | 51 | 1012.4 |
| 20260502070057 | 8 | 316 | 0.0 | 3.2 | 0.00 | 0.00 | 0.00 | 50 | 1011.4 |
| 20260502064548 | 8 | 316 | 4.8 | 9.7 | 0.00 | 0.00 | 0.00 | 50 | 1011.6 |
| 20260502063041 | 8 | 335 | 0.0 | 3.2 | 0.00 | 0.00 | 0.00 | 53 | 1011.5 |
| 20260502061540 | 8 | 335 | 0.0 | 6.4 | 0.00 | 0.00 | 0.00 | 51 | 1011.5 |
| 20260502060036 | 7 | 335 | 0.0 | 4.8 | 0.00 | 0.00 | 0.00 | 56 | 1011.7 |
| 20260502054539 | 7 | 335 | 0.0 | 4.8 | 0.00 | 0.00 | 0.00 | 55 | 1011.7 |
| 20260502053035 | 7 | 335 | 0.0 | 3.2 | 0.00 | 0.00 | 0.00 | 54 | 1011.7 |
| 20260502051541 | 8 | 335 | 1.6 | 8.0 | 0.00 | 0.00 | 0.00 | 52 | 1011.8 |
| 20260502050039 | 8 | 335 | 0.0 | 1.6 | 0.00 | 0.00 | 0.00 | 49 | 1011.6 |
| 20260502044533 | 8 | 335 | 0.0 | 6.4 | 0.00 | 0.00 | 0.00 | 51 | 1011.5 |
| 20260502043033 | 8 | 335 | 0.0 | 1.6 | 0.00 | 0.00 | 0.00 | 53 | 1011.4 |
| 20260502041535 | 10 | 335 | 0.0 | 6.4 | 0.00 | 0.00 | 0.00 | 46 | 1011.2 |
| 20260502040036 | 9 | 335 | 0.0 | 0.0 | 0.00 | 0.00 | 0.00 | 49 | 1011.1 |
| 20260502034531 | 10 | 335 | 0.0 | 0.0 | 0.00 | 0.00 | 0.00 | 48 | 1011.1 |
| 20260502033130 | 10 | 335 | 0.0 | 4.8 | 0.00 | 0.00 | 0.00 | 48 | 1011.0 |
| 20260502031530 | 11 | 335 | 0.0 | 1.6 | 0.00 | 0.00 | 0.00 | 47 | 1010.7 |
| 20260502030030 | 12 | 335 | 0.0 | 1.6 | 0.00 | 0.00 | 0.00 | 45 | 1010.6 |
| 20260502024535 | 12 | 10 | 1.6 | 8.0 | 0.00 | 0.00 | 0.00 | 44 | 1010.5 |
| 20260502023029 | 13 | 10 | 3.2 | 8.0 | 0.00 | 0.00 | 0.00 | 42 | 1010.5 |
| 20260502021528 | 16 | 10 | 0.0 | 0.0 | 0.00 | 0.00 | 0.00 | 32 | 1010.3 |
| 20260502020028 | 17 | 10 | 0.0 | 1.6 | 0.00 | 0.00 | 0.00 | 28 | 1010.2 |
| 20260502014527 | 19 | 10 | 0.0 | 1.6 | 0.00 | 0.00 | 0.00 | 26 | 1010.1 |